FW5877 Monroe CT US current weather conditions

sailwx.info

Wind from 284

Air temperature 30.6° C
Dewpoint 22.9° C

Last reported at 2020-Aug-12 20:11 UTC.
Time now 2020-Aug-14 11:17 UTC

Location: N 41°21' W 073°16'.
View on Google Maps.

See reports from other nearby stations

  
Tides and Currents Weather Stations Pressure Air Temp Water Temp Dewpoint Dewpoint Depression Visibility Wind Speed Wind Dir Waves Ship Positions
date/time (UTC)wind fromknots sea level pressurealtimeterstation pressurevisibilityair tempwater tempwave heightnotes
2020-Aug-12 20:11 284 30.6
2020-Aug-12 20:01 284 0 gusting 1 30.6
2020-Aug-12 19:51 303 30.6
2020-Aug-12 19:41 051 0 gusting 1 31.1
2020-Aug-12 19:31 259 0 gusting 3 31.7
2020-Aug-12 19:21 107 0 gusting 1 31.1
2020-Aug-12 19:11 070 0 gusting 2 30.6
2020-Aug-12 19:01 090 1 gusting 2 31.1
2020-Aug-12 18:51 097 0 gusting 1 31.1
2020-Aug-12 18:41 107 0 gusting 2 30.6
2020-Aug-12 18:31 134 1 gusting 4 30.6
2020-Aug-12 18:21 258 0 gusting 1 31.1
2020-Aug-12 18:11 282 31.1
2020-Aug-12 18:01 216 1 gusting 4 31.7
2020-Aug-12 17:51 069 30.6
2020-Aug-12 17:41 352 0 gusting 2 30.6
2020-Aug-12 17:31 319 0 gusting 1 31.7
2020-Aug-12 17:21 208 1 gusting 3 31.7
2020-Aug-12 17:11 158 0 gusting 1 31.7
2020-Aug-12 17:01 219 0 gusting 2 30.6
2020-Aug-12 16:51 208 0 gusting 1 30.6
2020-Aug-12 16:41 223 0 gusting 1 30.0
2020-Aug-12 16:31 299 0 gusting 2 30.6
2020-Aug-12 16:21 256 0 gusting 1 31.1
2020-Aug-12 16:11 023 0 gusting 2 30.6
2020-Aug-12 16:01 127 0 gusting 2 29.4
2020-Aug-12 15:51 239 0 gusting 2 30.0
2020-Aug-12 15:41 072 1 gusting 2 28.3
2020-Aug-12 15:31 073 0 gusting 2 29.4
2020-Aug-12 15:21 031 0 gusting 2 28.3
2020-Aug-12 15:11 059 0 gusting 2 28.9
2020-Aug-12 15:01 339 0 gusting 2 28.9
2020-Aug-12 14:51 316 0 gusting 1 30.0
2020-Aug-12 14:41 087 0 gusting 1 29.4
2020-Aug-12 14:31 345 1 gusting 4 29.4
2020-Aug-12 14:21 054 0 gusting 3 28.3
2020-Aug-12 14:11 066 0 gusting 2 27.2
2020-Aug-12 14:01 072 27.2
2020-Aug-12 13:51 068 26.7
2020-Aug-12 13:41 062 0 gusting 1 26.7
2020-Aug-12 13:31 079 0 gusting 2 27.2
2020-Aug-12 13:21 031 0 gusting 2 26.7
2020-Aug-12 13:11 349 0 gusting 1 26.7
2020-Aug-12 13:01 262 0 gusting 1 27.2
2020-Aug-12 12:51 263 26.7
2020-Aug-12 12:41 261 0 gusting 1 26.7
2020-Aug-12 12:31 254 0 gusting 1 25.6
2020-Aug-12 12:21 255 24.4
2020-Aug-12 12:11 255 24.4
2020-Aug-12 12:01 255 23.9
2020-Aug-12 11:51 255 23.3
2020-Aug-12 11:41 255 23.3
2020-Aug-12 11:31 255 23.3
2020-Aug-12 11:21 255 22.8
2020-Aug-12 11:11 243 22.8
2020-Aug-12 11:01 243 22.8